ATLAS 5 CENTAUR R/B, 51851

Orbit data source: Space-Track

ATLAS 5 CENTAUR R/B, 51851 is space debris in HEO originally from a launch on Tue, 01 Mar 2022 UTC launched from the Air Force Eastern Test Range (AFETR). Debris objects in space refer to the collection of defunct objects orbiting the Earth. Examples of debris include non-operational satellites, rocket bodies, and fragments generated from explosions, collisions, or faulty payload assembly.

Loading next visibility...
ATLAS 5 CENTAUR R/B details
Identifier
51851, 2022-021B
Orbit
HEO
Last TLE update20 hours ago
Origin
Flag of USLMSS Denver (US)
ManufacturerLMSS Denver
MissionSpacecraft
Bus & MotorCENTAUR SEC, RL10C-1
Mass~2,020 kg wet, 2,020 kg dry
Launch date (UTC)
2022-03-01 (3 years ago)
Launch vehicleUnknown
Launch site
Air Force Eastern Test Range (AFETR)
Object type
Payload
Rocket body
Debris
Shape & HBRCyl + 1 Nozzle, 11.7 m
Radar Cross Section32.260 m², Large (>1 m²)

Expand to show TLE details & history

TLE from 20 hours ago
0 ATLAS 5 CENTAUR R/B
1 51851U 22021B   24360.68052210 -.00000069  00000-0  00000-0 0  9992
2 51851   7.9226 236.9716 4795310  10.5603 356.8567  1.85574504 19117
Epoch: 2024-12-25T16:19Z
Definitive object data (Epoch: 2024-12-25T16:19:57.109Z)
Latitude-0.00003°
Longitude-102.60598°
Altitude8,238.812 km
Speed6.347 km/s
True Right ascension15h 48m 12s
True Declination0° 00' 00"
Sunlit
Object was in daylight at TLE epoch
Visualization TLE readout
Latitude-1.81273°
Longitude90.45908°
Altitude34,990.569 km
Speed2.241 km/s
Apparent Right ascension04h 14m 34s
Apparent Declination-7° 11' 50"
Sunlit
Object is in daylight
Visualization observer readout
Local Sidereal Time11:26:05
Azimuth276.006° WNW
Elevation-18.3°
Doppler factor1
Orbital elements
Apogee altitude35,010.626 km
Perigee altitude8,181.591 km
Semi-major axis27,974.245 km
Eccentricity0.479531
Inclination7.9226°
RAAN236.9716°
Arg. of periapsis10.5603°
True anomaly349.85197°
Mean anomaly356.8567°
Eccentric anomaly353.97089°
Mean motion0.46388 °/min
BSTARUnknown
Orbital period776.06 mins
Loading maneuver chart data...
Loading historical data...
Loading historical data...
Loading historical data...
Loading historical data...
Loading historical data...
Loading historical data...
Loading historical data...
Other satellites on launch #21 in the year 2022 (2022-03-01 UTC)

ATLAS 5 CENTAUR R/B Visibility forecast

Observer location: undefined°, undefined

Span
Click to sort rows by Start time (UTC) header in descending order
Start Az.
Max El. time (UTC)
Max El. Az.
Max El.
End time (UTC)
End Az.
132 mins2024-12-26 18:01:37.975Z229.881° WSW2024-12-26 18:41:37.975Z163.792° S29.545°2024-12-26 20:13:37.975Z102.091° ESE
137 mins2024-12-27 01:22:37.975Z110.146° ESE2024-12-27 02:38:37.975Z114.666° SE11.144°2024-12-27 03:39:37.975Z116.737° SE
|